| time (UTC) | temp F | wind direction | speed MPH | gust MPH | rain 1hr in | rain 24hr in | rain mn in | humidity % | barometer mb |
| 20260506024533 | 50 | 57 | 0.0 | 2.0 | 0.00 | 0.33 | 0.33 | 54 | 1014.4 |
| 20260506023026 | 49 | 294 | 0.0 | 3.0 | 0.00 | 0.33 | 0.33 | 59 | 1014.3 |
| 20260506021524 | 49 | 346 | 0.0 | 0.0 | 0.00 | 0.33 | 0.33 | 60 | 1013.9 |
| 20260506020024 | 50 | 346 | 0.0 | 0.0 | 0.00 | 0.33 | 0.33 | 60 | 1013.6 |
| 20260506014523 | 50 | 346 | 0.0 | 0.0 | 0.00 | 0.33 | 0.33 | 60 | 1013.5 |
| 20260506013025 | 51 | 346 | 0.0 | 0.0 | 0.00 | 0.33 | 0.33 | 61 | 1013.3 |
| 20260506011525 | 51 | 346 | 0.0 | 0.0 | 0.00 | 0.33 | 0.33 | 61 | 1013.3 |
| 20260506010023 | 51 | 346 | 0.0 | 0.0 | 0.00 | 0.33 | 0.33 | 61 | 1013.1 |
| 20260506004521 | 51 | 346 | 0.0 | 0.0 | 0.00 | 0.33 | 0.33 | 60 | 1013.3 |
| 20260506003022 | 52 | 346 | 0.0 | 1.0 | 0.00 | 0.33 | 0.33 | 60 | 1013.2 |
| 20260506001520 | 52 | 346 | 0.0 | 2.0 | 0.00 | 0.33 | 0.33 | 59 | 1012.9 |
| 20260506000019 | 52 | 346 | 0.0 | 0.0 | 0.00 | 0.33 | 0.33 | 59 | 1012.6 |
| 20260505234539 | 53 | 346 | 0.0 | 0.0 | 0.00 | 0.33 | 0.33 | 56 | 1012.8 |
| 20260505233019 | 52 | 343 | 0.0 | 2.0 | 0.00 | 0.33 | 0.33 | 55 | 1013.0 |
| 20260505231518 | 52 | 343 | 0.0 | 1.0 | 0.00 | 0.33 | 0.33 | 56 | 1013.1 |
| 20260505230017 | 53 | 343 | 0.0 | 1.0 | 0.00 | 0.33 | 0.33 | 54 | 1012.7 |
| 20260505224526 | 53 | 343 | 0.0 | 2.0 | 0.00 | 0.33 | 0.33 | 54 | 1012.6 |
| 20260505223016 | 53 | 343 | 0.0 | 3.0 | 0.00 | 0.33 | 0.33 | 53 | 1012.8 |
| 20260505221516 | 53 | 343 | 0.0 | 1.0 | 0.00 | 0.33 | 0.33 | 54 | 1012.8 |
| 20260505220015 | 53 | 343 | 0.0 | 0.0 | 0.00 | 0.33 | 0.33 | 55 | 1012.7 |
| 20260505214520 | 53 | 343 | 0.0 | 0.0 | 0.00 | 0.33 | 0.33 | 55 | 1012.8 |
| 20260505213014 | 53 | 344 | 0.0 | 2.0 | 0.00 | 0.33 | 0.33 | 54 | 1012.7 |
| 20260505211515 | 53 | 345 | 0.0 | 3.0 | 0.00 | 0.33 | 0.33 | 54 | 1012.8 |
| 20260505210014 | 53 | 319 | 1.0 | 3.0 | 0.00 | 0.33 | 0.33 | 55 | 1013.1 |
| 20260505204523 | 53 | 319 | 0.0 | 3.0 | 0.00 | 0.33 | 0.33 | 54 | 1013.0 |
| 20260505203015 | 52 | 319 | 0.0 | 3.0 | 0.00 | 0.33 | 0.33 | 54 | 1013.1 |
| 20260505201511 | 52 | 329 | 1.0 | 3.0 | 0.00 | 0.33 | 0.33 | 54 | 1013.1 |
| 20260505200020 | 52 | 329 | 0.0 | 4.0 | 0.00 | 0.33 | 0.33 | 55 | 1013.1 |
| 20260505194511 | 51 | 196 | 0.0 | 3.0 | 0.00 | 0.33 | 0.33 | 55 | 1013.1 |
| 20260505193011 | 50 | 242 | 0.0 | 2.0 | 0.00 | 0.33 | 0.33 | 55 | 1013.2 |
| 20260505191512 | 49 | 242 | 0.0 | 3.0 | 0.00 | 0.33 | 0.33 | 55 | 1013.1 |
| 20260505190012 | 49 | 243 | 0.0 | 1.0 | 0.01 | 0.33 | 0.33 | 55 | 1013.1 |
| 20260505184520 | 49 | 55 | 0.0 | 1.0 | 0.01 | 0.33 | 0.33 | 57 | 1013.2 |
| 20260505183022 | 49 | 95 | 0.0 | 2.0 | 0.01 | 0.33 | 0.33 | 56 | 1013.2 |
| 20260505181507 | 48 | 96 | 0.0 | 1.0 | 0.01 | 0.33 | 0.33 | 56 | 1013.3 |
| 20260505180007 | 48 | 96 | 0.0 | 3.0 | 0.00 | 0.32 | 0.32 | 56 | 1013.3 |
| 20260505174510 | 48 | 95 | 0.0 | 3.0 | 0.00 | 0.32 | 0.32 | 57 | 1013.3 |
| 20260505173017 | 48 | 344 | 0.0 | 2.0 | 0.00 | 0.32 | 0.32 | 57 | 1013.8 |
| 20260505171506 | 48 | 311 | 0.0 | 4.0 | 0.00 | 0.32 | 0.32 | 57 | 1014.0 |
| 20260505170008 | 48 | 18 | 0.0 | 1.0 | 0.00 | 0.32 | 0.32 | 57 | 1013.7 |
| 20260505164505 | 48 | 108 | 0.0 | 1.0 | 0.01 | 0.32 | 0.32 | 57 | 1013.6 |
| 20260505163004 | 48 | 96 | 0.0 | 1.0 | 0.02 | 0.32 | 0.32 | 58 | 1013.5 |
| 20260505161502 | 47 | 54 | 0.0 | 1.0 | 0.02 | 0.32 | 0.32 | 58 | 1013.6 |
| 20260505153001 | 47 | 80 | 0.0 | 0.0 | 0.05 | 0.30 | 0.30 | 60 | 1013.7 |
| 20260505151608 | 47 | 80 | 0.0 | 0.0 | 0.06 | 0.30 | 0.30 | 60 | 1013.1 |
| 20260505124545 | 48 | 69 | 0.0 | 2.0 | 0.07 | 0.12 | 0.12 | 59 | 1010.9 |
| 20260505123038 | 49 | 82 | 1.0 | 3.0 | 0.05 | 0.10 | 0.10 | 56 | 1010.6 |
| 20260505121540 | 50 | 84 | 0.0 | 3.0 | 0.02 | 0.07 | 0.07 | 52 | 1010.9 |
| 20260505120041 | 51 | 91 | 0.0 | 3.0 | 0.00 | 0.05 | 0.05 | 47 | 1010.5 |
| 20260505114534 | 51 | 5 | 0.0 | 3.0 | 0.00 | 0.05 | 0.05 | 46 | 1010.2 |
| 20260505113035 | 52 | 15 | 1.0 | 4.0 | 0.00 | 0.05 | 0.05 | 44 | 1010.2 |
| 20260505111532 | 52 | 28 | 1.0 | 4.0 | 0.00 | 0.05 | 0.05 | 45 | 1010.1 |
| 20260505101536 | 51 | 330 | 0.0 | 3.0 | 0.00 | 0.05 | 0.05 | 48 | 1010.5 |
| 20260505100031 | 51 | 23 | 1.0 | 3.0 | 0.00 | 0.05 | 0.05 | 49 | 1010.2 |
| 20260505094530 | 51 | 24 | 1.0 | 4.0 | 0.00 | 0.05 | 0.05 | 52 | 1010.2 |
| 20260505093029 | 50 | 19 | 1.0 | 4.0 | 0.00 | 0.05 | 0.05 | 54 | 1009.4 |
| 20260505091527 | 50 | 32 | 1.0 | 8.0 | 0.00 | 0.05 | 0.05 | 54 | 1008.8 |
| 20260505090027 | 50 | 14 | 1.0 | 6.0 | 0.00 | 0.05 | 0.05 | 54 | 1008.5 |
| 20260505084535 | 51 | 30 | 2.0 | 8.0 | 0.02 | 0.05 | 0.05 | 55 | 1008.6 |
| 20260505083028 | 50 | 355 | 0.0 | 5.0 | 0.05 | 0.05 | 0.05 | 57 | 1009.0 |
| 20260505081526 | 50 | 334 | 1.0 | 4.0 | 0.05 | 0.05 | 0.05 | 59 | 1009.2 |
| 20260505080025 | 50 | 333 | 0.0 | 1.0 | 0.05 | 0.05 | 0.05 | 58 | 1009.8 |
| 20260505074519 | 53 | 333 | 0.0 | 3.0 | 0.03 | 0.03 | 0.03 | 48 | 1010.4 |
| 20260505073023 | 56 | 331 | 0.0 | 4.0 | 0.00 | 0.00 | 0.00 | 41 | 1010.0 |
| 20260505071511 | 58 | 213 | 1.0 | 5.0 | 0.00 | 0.00 | 0.00 | 32 | 1008.5 |
| 20260505070008 | 58 | 32 | 1.0 | 6.0 | 0.00 | 0.00 | 0.00 | 28 | 1007.8 |
| 20260505064506 | 58 | 30 | 2.0 | 14.0 | 0.00 | 0.00 | 0.00 | 27 | 1007.5 |
| 20260505063006 | 59 | 81 | 2.0 | 12.0 | 0.00 | 0.00 | 0.00 | 26 | 1007.6 |
| 20260505061600 | 60 | 60 | 5.0 | 15.0 | 0.00 | 0.00 | 0.00 | 25 | 1007.0 |
| 20260505060056 | 61 | 34 | 3.0 | 13.0 | 0.00 | 0.00 | 0.00 | 27 | 1006.7 |
| 20260505054604 | 63 | 44 | 3.0 | 9.0 | 0.00 | 0.00 | 0.00 | 27 | 1006.7 |
| 20260505053055 | 65 | 57 | 3.0 | 10.0 | 0.00 | 0.00 | 0.00 | 27 | 1006.1 |
| 20260505051543 | 66 | 47 | 3.0 | 10.0 | 0.00 | 0.00 | 0.00 | 26 | 1005.8 |
| 20260505041550 | 69 | 280 | 1.0 | 8.0 | 0.00 | 0.00 | 0.00 | 29 | 1004.7 |
| 20260505040048 | 69 | 273 | 1.0 | 5.0 | 0.00 | 0.00 | 0.00 | 29 | 1004.6 |
| 20260505034535 | 69 | 38 | 1.0 | 8.0 | 0.00 | 0.00 | 0.00 | 35 | 1004.2 |
| 20260505033036 | 67 | 44 | 2.0 | 7.0 | 0.00 | 0.00 | 0.00 | 47 | 1004.1 |
| 20260505031541 | 65 | 307 | 0.0 | 0.0 | 0.00 | 0.00 | 0.00 | 56 | 1003.2 |
| 20260505030033 | 65 | 307 | 0.0 | 0.0 | 0.00 | 0.00 | 0.00 | 55 | 1003.3 |